Regional Weather Roundup
Issued by NWS

Home | Current Version | Previous Version | Graphics & Text | Print | Product List | Glossary On
Versions: 1 2 3 4 5 6 7 8 9 10 11 12 13 14 15 16 17 18 19 20 21 22 23 24 25 26 27
000
ASUS45 KTFX 222210
RWRMT
MONTANA REGIONAL WEATHER ROUNDUP
NATIONAL WEATHER SERVICE GREAT FALLS MT
400 PM MDT SAT JUL 22 2017

NOTE: "FAIR" INDICATES FEW OR NO CLOUDS BELOW 12000 FEET WITH NO
SIGNIFICANT WEATHER AND/OR OBSTRUCTIONS TO VISIBILITY.

MTZ001>007-043-222300-
WEST OF THE DIVIDE

CITY           SKY/WX    TMP DP  RH WIND       PRES   REMARKS
KALISPELL        N/A     84  42  22 S13       30.11F
MISSOULA         N/A     87  37  17 VRB3      30.13F
BUTTE          SUNNY     84  24  11 NW9       30.24F
MULLAN PASS      N/A     71  41  33 N6        30.33F
ANACONDA         N/A     81  36  19 N9        30.21F
DEER LODGE       N/A     81  36  19 N7        30.23F
EUREKA           N/A     86  43  22 MISG      30.08F
HAMILTON         N/A     82  37  20 NW5       30.16F
LIBBY            N/A     86  43  22 W5        30.09F
PLAINS           N/A     90  45  21 N2        30.10F
$$

MTZ008-052>055-222300-
SOUTHWEST MONTANA

CITY           SKY/WX    TMP DP  RH WIND       PRES   REMARKS
BOZEMAN        SUNNY     87  33  14 NE8       30.17F
DILLON         SUNNY     84  32  15 VRB5      30.19F
W YELLOWSTONE  SUNNY     81  23  12 VRB7G21   30.29F
ENNIS          SUNNY     84  19   9 N9        30.26F
THREE FORKS      N/A     89  25  10 NE7       30.12F
TWIN BRIDGES     N/A     85  32  15 CALM      30.16F
$$

MTZ009-010-012-014-046-048-049-054-222300-
EAST SLOPES AND CENTRAL MONTANA

CITY           SKY/WX    TMP DP  RH WIND       PRES   REMARKS
CUT BANK         N/A     84  39  20 VRB3      30.09F
GREAT FALLS    SUNNY     86  34  15 NW9       30.10F
MALMSTROM AFB  SUNNY     86  35  16 SW9       30.09F
HELENA         SUNNY     90  35  14 W16G25    30.12F
CHOTEAU          N/A     84  37  18 CALM      30.13F
CONRAD           N/A     88  44  21 W9        30.11F
$$

MTZ011-013-016-021-045-047-050-051-222300-
NORTH CENTRAL MONTANA

CITY           SKY/WX    TMP DP  RH WIND       PRES   REMARKS
HAVRE          SUNNY     88  38  17 W15       30.04F
LEWISTOWN      SUNNY     85  36  17 NW7       30.14S
N BAR RANCH      N/A     84  32  15 N12       30.17S
CHINOOK          N/A     84  39  20 CALM      30.03F
$$

MTZ017>020-022>027-061-062-222300-
NORTHEAST MONTANA

CITY           SKY/WX    TMP DP  RH WIND       PRES   REMARKS
GLASGOW        SUNNY     86  43  22 MISG      30.04S
JORDAN           N/A     88  38  17 NW10G18   30.05F
SIDNEY         SUNNY     85  47  26 NW18G24   30.01S
WOLF POINT     SUNNY     88  43  20 NW18G29   30.02F
MALTA          SUNNY     86  39  19 W10       30.03F
PLENTYWOOD       N/A     79  46  31 NW13G21   30.02F
POPLAR           N/A     82  45  26 NW16G25   30.02F
SCOBEY           N/A     79  47  32 NW16      30.04F
$$

MTZ028>42-056>058-222300-
SOUTHCENTRAL AND SOUTHEAST MONTANA

CITY           SKY/WX    TMP DP  RH WIND       PRES   REMARKS
BAKER          SUNNY     87  37  17 NW21G29   30.07F
BILLINGS       MOSUNNY   87  29  12 CALM      30.09F
LIVINGSTON     SUNNY     90  23   9 W16       30.15F
MILES CITY     SUNNY     90  34  13 NW10G25   30.04F
BIG TIMBER     SUNNY     90  19   7 W16G22    30.16S
EKALAKA          N/A     85  35  16 NW5       30.08S
FORSYTH          N/A     90  36  14 SW5       30.05F
LAUREL           N/A     88  35  15 E6        30.08F
$$

REGIONAL REPORTS...DAKOTAS

CITY           SKY/WX    TMP DP  RH WIND       PRES   REMARKS
WILLISTON      MOSUNNY   86  46  24 N14G22    30.00S
MINOT          PTSUNNY   78  54  43 NW20G31   29.95R
DICKINSON      SUNNY     84  46  26 N15G28    30.01S
BEACH            N/A     84  39  20 NW21G31   30.08F
CROSBY           N/A     77  50  38 N15G23    30.00S
TIOGA            N/A     77  46  33 NW17G25   30.02S
WATFORD CITY     N/A     82  48  30 N16G25    29.99S
BISMARCK       SUNNY     85  51  31 NW18G31   29.94S
GRAND FORKS    MOSUNNY   82  56  40 NW17G25   29.84R
FARGO          SUNNY     84  54  35 NW16      29.86S
BUFFALO SD       N/A     88  39  17 NW20      30.00F
RAPID CITY     SUNNY     91  40  16 NE5       30.06S
$$

REGIONAL REPORTS...WYOMING/IDAHO/WASHINGTON

CITY           SKY/WX    TMP DP  RH WIND       PRES   REMARKS
GILLETTE       SUNNY     91  28  10 N12       30.13F
SHERIDAN       SUNNY     90  30  11 N6        30.12F
BUFFALO WY     SUNNY     85  29  13 E3        30.20S
CODY           SUNNY     84  41  21 N10       30.18F
YELLOWSTONE LA   N/A     75  37  25 CALM      30.39F
IDAHO FALLS    SUNNY     86  38  18 CALM      30.18F
BOISE            N/A     94  37  13 W12G22    30.06F
SPOKANE          N/A     84  45  25 VRB3      30.14F
$$

REGIONAL REPORTS...ALBERTA

CITY           SKY/WX    TMP DP  RH WIND       PRES   REMARKS
EDMONTON       MOSUNNY   77  54  44 W5        29.96F
CALGARY        MOSUNNY   81  46  30 VRB9      30.02F
LETHBRIDGE     MOSUNNY   86  43  22 W17G24    30.02F
WATERTON GATE    N/A     81  43  26 SW15G29     N/A
CARDSTON         N/A     84  45  24 W10G21      N/A
MILK RIVER       N/A     86  48  26 NW10G17     N/A
$$

REGIONAL REPORTS...SASKATCHEWAN

CITY           SKY/WX    TMP DP  RH WIND       PRES   REMARKS
SWIFT CURRENT  PTSUNNY   75  52  43 NW12G20   30.05F
REGINA         PTSUNNY   75  52  43 NW13      30.01S
SASKATOON      MOSUNNY   75  57  53 NW9       30.01F
CYPRESS HILLS    N/A     73  43  33 N6          N/A
VAL MARIE        N/A     82  43  24 NW10        N/A
ROCKGLEN         N/A     75  46  35 NW12G21     N/A
$$




USA.gov is the U.S. government's official web portal to all federal, state and local government web resources and services.